Wind_Speed
46 46 49 50 53 55 56 56 55 54 52 51 50 48 47 46 43 40 39 38 37 34 32 33 32 31 31 31 32 32 32 30 28 26 25 23 23 22 21 21 20 18 16 14 13 13 13 13 13 14 16 15 14 13 14 15 16 16 16 17 17 18 19 20 20 18 15 15 17 19 21 23 23 23 23 24 24 25 25 26 27 28 28 28 29
50 49 50 52 55 59 62 63 64 64 63 60 58 53 49 47 45 42 39 38 37 35 34 34 35 33 32 32 33 32 32 30 29 27 26 24 24 24 23 22 21 20 18 17 15 15 15 14 13 14 17 17 15 15 15 16 17 17 17 18 18 18 19 20 21 20 18 17 18 19 21 22 23 23 24 24 25 25 26 26 28 28 29 28 29
52 52 51 52 55 59 62 63 62 63 64 60 56 53 49 45 44 42 39 37 37 37 36 36 37 36 34 34 34 33 31 30 30 29 27 26 26 26 25 24 24 23 22 20 18 18 18 16 14 15 17 18 17 16 16 17 18 18 18 18 19 19 20 21 21 21 20 19 20 20 21 22 23 24 25 25 25 26 27 27 28 29 29 29 29
52 53 54 55 56 58 60 57 52 51 53 54 52 47 42 40 41 41 39 37 36 37 38 38 39 39 37 36 35 33 31 29 29 30 29 27 27 28 28 27 26 26 25 24 22 21 21 19 17 17 18 19 18 17 17 18 18 19 19 20 20 21 21 22 22 22 21 21 21 21 22 23 24 24 25 25 25 26 27 27 28 29 29 29 29
52 53 54 56 57 57 56 53 49 45 44 47 48 43 38 38 40 42 43 40 38 37 39 40 41 41 40 38 36 33 31 30 30 30 30 28 28 29 29 29 29 28 27 27 25 24 24 22 20 20 20 20 19 18 18 19 19 20 20 21 22 23 23 24 23 23 23 23 22 23 23 23 24 25 25 25 25 26 27 27 28 29 29 30 31
52 52 52 54 55 55 51 49 48 44 39 41 44 43 41 41 41 43 45 44 41 40 40 40 42 43 42 40 38 35 33 32 31 31 30 30 30 30 30 29 29 28 28 28 27 27 26 25 23 23 23 22 20 19 19 20 21 21 22 22 23 25 26 26 25 25 24 24 25 24 24 24 24 25 25 25 25 26 26 27 28 29 30 31 32
51 51 50 49 50 51 50 46 44 41 38 39 43 44 44 44 43 44 45 45 44 43 41 41 42 42 43 43 42 39 38 37 36 35 35 33 32 32 30 29 28 28 28 28 28 28 28 27 26 25 25 24 22 21 21 21 22 22 23 23 24 26 27 27 27 26 26 26 26 26 26 25 25 26 25 25 25 25 25 27 29 30 31 32 33
44 47 47 46 46 48 49 45 39 38 38 38 41 44 44 45 45 43 43 44 44 44 43 42 42 42 43 45 45 44 43 42 41 41 40 37 35 34 32 31 30 29 30 31 30 30 31 30 30 28 27 27 25 24 23 23 23 24 24 25 26 27 28 29 29 28 27 27 27 27 27 27 26 26 26 26 25 24 25 28 30 30 31 33 34
34 38 41 42 43 45 46 44 38 36 36 37 40 44 44 44 44 41 40 41 42 43 43 43 44 43 43 44 46 47 45 43 43 43 44 42 38 37 36 35 34 33 34 34 34 33 33 33 33 32 30 29 28 27 26 26 26 26 25 26 28 29 30 30 30 29 29 28 28 28 28 28 27 27 27 26 25 25 27 29 30 31 32 33 34
30 33 35 37 38 40 43 43 40 38 38 38 40 43 44 43 42 39 38 38 39 40 41 42 44 45 46 46 47 48 48 45 43 43 45 46 43 40 40 40 39 38 37 37 37 36 35 35 35 35 33 32 31 30 29 28 28 28 27 28 29 30 31 32 32 31 30 30 29 29 29 28 27 27 27 26 26 26 27 29 30 31 32 33 34
30 31 31 32 35 36 37 39 40 39 40 40 40 43 44 44 42 41 40 39 39 38 38 40 42 43 45 47 48 50 50 49 48 45 45 47 48 45 44 43 42 41 40 39 39 38 37 37 37 37 36 35 34 32 31 31 31 31 30 30 30 31 32 33 34 33 32 32 31 31 30 29 28 27 27 26 26 27 28 29 31 32 32 33 34
29 30 30 31 34 34 34 36 38 39 41 43 44 44 45 44 43 43 43 41 40 39 39 40 41 42 44 45 47 49 51 51 50 47 46 49 51 49 46 44 42 41 41 41 41 39 38 38 37 37 36 37 36 36 34 33 33 33 34 33 33 34 34 34 35 34 34 34 33 33 32 30 28 28 27 27 27 28 29 30 31 31 32 32 32
29 29 29 31 33 35 36 37 39 40 42 45 48 48 47 46 45 44 44 44 43 42 42 42 43 44 45 45 45 47 49 50 51 48 46 50 53 50 47 45 42 41 42 43 42 40 38 37 37 37 37 37 37 37 37 36 35 35 36 37 38 37 36 36 35 35 35 35 35 35 34 32 30 28 27 28 29 29 30 30 30 31 32 31 30
32 31 29 29 31 34 37 40 41 40 41 44 48 48 46 46 46 45 45 46 46 45 43 44 44 45 45 46 46 46 47 49 51 49 45 47 49 48 47 47 45 43 43 42 42 42 40 38 38 40 41 40 38 38 38 38 38 37 38 39 41 41 39 38 37 37 36 35 35 35 35 34 32 29 28 29 30 30 30 31 31 31 32 31 30
35 34 32 31 30 32 35 39 42 43 43 44 45 46 46 47 47 47 48 49 48 47 45 45 45 45 45 45 46 48 47 48 52 52 46 44 45 46 47 49 48 45 44 43 42 42 43 41 40 41 43 44 42 38 38 38 38 38 39 40 42 43 42 40 39 38 38 37 36 36 36 36 34 31 29 29 29 29 31 32 32 32 32 31 30
37 37 37 35 34 33 33 36 39 43 45 47 47 46 48 49 49 49 50 51 51 49 47 46 45 46 45 44 44 47 48 47 50 52 49 44 43 46 49 51 50 47 47 47 46 44 44 43 41 41 43 47 45 39 37 37 37 37 38 39 41 43 43 41 40 40 39 38 37 37 37 37 36 33 31 30 30 30 32 33 33 33 33 32 31
38 38 39 38 37 37 36 36 37 38 41 45 48 49 52 53 52 51 51 51 51 51 49 47 46 46 47 47 47 49 49 47 47 50 51 47 43 45 49 51 50 49 48 50 49 46 43 43 41 41 43 48 47 39 35 35 36 35 35 36 38 40 41 41 41 41 40 40 39 38 38 37 37 36 34 33 32 32 34 34 33 33 34 33 33
38 38 38 38 38 38 38 38 38 38 38 40 43 47 51 53 52 51 49 49 49 50 50 48 48 48 47 47 49 49 48 45 43 46 49 47 43 44 48 50 51 50 49 49 49 46 43 41 40 41 44 47 44 36 31 32 33 33 32 33 34 35 37 39 41 41 41 40 40 40 39 38 38 38 37 36 35 35 36 35 34 35 36 35 35
41 40 40 39 39 39 39 39 39 39 38 38 38 40 43 44 45 46 47 46 45 46 48 49 48 47 44 41 41 42 39 37 38 42 44 44 43 46 49 52 53 51 49 48 48 46 43 40 38 39 40 40 35 30 29 30 31 30 29 31 30 29 32 37 39 40 41 41 41 41 40 40 40 39 38 38 38 38 37 36 36 37 37 38 40
45 44 43 42 42 41 41 41 41 41 40 39 38 38 38 39 41 43 44 44 43 43 45 47 46 43 39 35 33 34 35 34 35 40 43 44 46 49 52 55 54 50 47 48 49 46 41 37 35 34 34 33 31 29 29 30 31 30 29 30 29 27 29 34 36 38 40 40 41 41 41 41 41 39 38 39 39 39 39 38 38 39 38 40 41
47 47 47 46 45 45 44 43 43 43 42 41 41 40 39 38 40 42 44 44 45 45 45 47 48 46 43 38 32 31 33 36 37 40 44 47 49 51 53 56 53 48 46 48 50 46 40 36 33 32 32 32 31 30 30 31 32 32 32 31 29 27 28 31 34 37 40 40 40 41 41 42 41 38 37 38 39 39 39 39 38 38 39 39 39
47 49 50 50 49 47 47 46 46 45 44 44 43 42 41 40 40 41 41 42 43 43 43 45 49 50 48 44 37 31 31 34 37 39 43 47 50 52 54 54 51 48 47 49 50 47 42 38 37 35 34 34 32 30 31 32 33 34 35 34 31 29 30 31 34 36 38 39 40 41 42 42 41 39 38 36 36 37 38 38 37 37 38 38 37
45 47 49 52 52 51 50 49 48 47 47 46 45 43 42 41 40 40 40 40 40 40 39 39 43 46 44 41 36 32 32 33 35 38 40 43 48 52 54 54 52 49 48 48 48 48 45 44 43 41 40 38 35 33 34 35 36 37 37 36 35 35 33 32 33 33 34 35 37 38 39 40 41 40 36 32 32 34 37 37 36 36 36 37 37
44 45 47 51 54 54 54 52 51 50 49 47 47 46 44 43 42 41 41 41 40 40 38 37 38 40 40 38 36 34 34 34 34 36 38 41 45 50 53 53 51 50 50 49 48 47 46 48 49 47 45 43 40 38 39 40 40 40 40 38 37 37 36 34 33 31 31 33 35 35 37 39 41 40 35 30 30 34 35 35 35 34 34 35 36
43 45 46 49 52 55 57 56 55 53 52 50 49 48 46 45 44 44 43 42 42 41 40 39 38 39 40 41 41 39 36 35 35 35 37 38 41 45 49 50 49 49 51 53 52 48 45 47 50 50 49 49 47 44 43 44 44 44 44 42 39 38 38 38 36 35 35 36 38 38 39 40 42 41 35 31 31 33 34 35 35 34 33 33 34
42 45 46 47 50 53 57 59 58 57 56 54 52 51 49 48 47 46 45 45 44 44 43 42 41 41 41 42 42 41 39 38 37 36 36 37 38 41 45 47 48 49 50 54 56 53 46 42 45 49 50 52 53 52 49 47 47 47 46 44 41 39 39 40 40 39 39 39 40 40 41 42 43 42 38 34 33 35 35 36 37 37 35 35 35
40 43 46 47 49 51 54 57 59 59 58 57 55 54 52 51 50 49 48 48 47 47 46 45 44 43 43 42 42 42 41 42 41 39 38 38 38 39 42 46 48 49 50 53 57 59 54 47 46 48 50 52 54 56 54 52 51 50 49 46 44 42 41 41 41 41 40 41 41 41 42 44 45 44 41 37 36 37 37 38 39 39 38 38 37
40 42 44 46 48 49 51 54 56 58 59 58 57 56 55 53 52 51 50 50 49 49 48 47 47 46 46 46 45 45 44 45 44 42 40 39 39 39 41 43 46 49 51 50 51 56 58 56 53 52 52 54 55 56 56 56 54 52 52 50 49 47 44 43 42 42 42 42 42 42 43 44 45 45 41 37 37 39 39 39 40 41 41 40 38
37 41 43 44 46 47 48 49 51 54 55 56 56 56 56 55 54 53 52 52 52 52 51 50 50 49 49 49 49 48 46 44 44 43 42 41 42 42 42 43 45 48 49 46 44 47 52 56 58 56 55 55 56 55 55 55 54 53 52 52 52 50 48 46 45 45 43 42 42 43 43 44 46 44 40 37 38 40 41 41 40 40 39 40 39
27 36 41 43 42 43 45 46 46 47 49 51 52 53 54 55 55 55 55 55 55 54 54 53 52 52 51 51 49 48 44 41 40 41 41 41 43 43 44 44 45 47 48 46 45 47 49 53 57 58 57 56 55 55 54 53 53 53 52 52 51 50 49 47 46 45 43 42 43 44 45 45 43 41 39 38 37 37 40 42 40 38 39 41 40
23 26 35 38 37 37 38 39 41 42 43 44 46 47 49 50 52 53 54 55 56 56 55 55 54 52 52 51 48 46 44 41 39 39 39 39 41 42 44 45 46 48 50 50 52 53 52 53 56 59 60 58 56 54 52 51 50 51 52 52 52 52 51 51 50 48 45 44 45 46 45 43 40 36 36 36 33 33 38 40 38 38 40 40 39
28 12 18 27 28 28 29 31 34 36 38 40 41 43 44 46 47 48 49 50 52 54 55 54 53 51 51 50 48 46 44 41 40 39 39 39 40 41 44 46 47 48 50 53 55 55 54 55 57 59 60 59 56 53 52 51 49 49 49 50 52 55 55 53 52 50 47 45 46 46 43 40 39 37 35 34 32 33 37 39 38 39 39 37 35
38 25 6 12 18 20 20 21 25 30 33 36 39 40 42 43 43 43 43 44 46 48 50 50 50 49 50 50 48 46 44 41 39 39 39 40 41 42 44 46 48 49 50 52 54 54 53 54 58 59 59 59 56 54 53 53 53 52 51 49 49 51 52 51 50 51 49 46 45 43 39 37 37 37 36 35 35 36 37 37 37 38 35 33 33
42 39 27 18 17 17 15 13 16 23 27 31 35 37 38 38 37 37 37 39 40 41 43 45 46 47 48 49 47 45 43 41 40 40 40 41 42 43 44 45 47 48 50 51 53 53 52 53 55 56 56 56 57 56 55 54 55 56 57 56 53 52 52 51 51 52 54 53 49 44 40 38 38 37 38 39 40 40 39 39 39 37 34 32 33
36 37 33 28 23 20 20 17 15 17 19 22 25 28 29 30 30 31 33 34 36 37 38 40 42 43 44 45 45 44 43 42 42 41 41 42 43 44 45 46 47 48 48 49 50 51 51 51 52 52 51 51 51 51 51 51 52 54 57 59 58 55 53 51 48 48 50 51 49 46 42 40 40 41 42 43 43 42 42 43 43 40 36 34 34
31 34 34 31 27 23 21 20 17 14 13 13 14 16 19 21 23 25 28 29 31 33 34 36 37 38 40 41 43 43 43 44 43 43 43 43 43 44 45 46 47 48 48 50 51 51 51 50 50 51 50 49 48 47 47 48 50 51 54 55 54 52 51 49 48 46 44 44 46 47 44 41 43 45 46 44 43 42 42 42 40 37 35 34 34
29 32 33 32 28 25 22 19 16 13 11 10 8 8 10 12 14 16 18 20 22 26 28 30 31 33 35 37 39 40 42 43 43 42 42 43 43 44 44 45 46 47 48 49 50 50 50 50 48 46 46 48 50 50 50 50 50 51 53 52 49 47 47 48 48 48 46 45 47 47 46 46 47 47 44 42 40 38 37 36 35 34 35 36 35
29 30 30 28 26 25 24 22 19 15 11 8 7 6 6 7 9 10 12 13 16 18 20 22 23 24 26 28 30 31 33 35 37 39 40 40 40 40 41 43 44 46 48 49 48 48 49 52 51 49 48 50 51 50 50 50 49 50 54 54 51 46 45 45 47 49 48 47 44 43 44 47 47 43 40 39 38 36 34 34 35 37 40 41 39
24 27 26 23 20 21 22 22 21 19 16 12 8 6 5 6 7 8 9 10 12 13 14 15 15 16 16 17 19 20 22 24 26 28 29 31 33 33 34 36 40 42 45 47 47 48 48 49 48 48 48 48 48 48 48 48 47 49 52 54 51 48 46 45 45 45 46 46 45 42 41 42 40 38 36 36 37 37 36 36 37 40 42 41 38
18 20 21 20 20 21 19 18 17 19 19 18 15 12 9 6 4 3 4 7 9 10 11 11 12 12 12 12 13 15 16 17 17 17 18 21 25 28 29 31 33 35 36 38 40 41 43 44 45 45 45 43 43 43 43 43 44 47 50 50 46 43 43 43 43 42 43 44 44 41 37 35 34 34 35 36 38 41 41 38 38 39 40 38 35
17 16 16 19 22 23 20 17 17 17 18 18 18 17 16 15 13 9 5 1 2 4 6 7 9 9 9 10 10 12 13 14 15 15 15 16 18 20 21 22 23 24 26 27 28 28 28 30 33 36 38 38 39 41 43 43 42 40 41 42 41 39 40 40 40 40 39 38 36 36 35 35 35 35 36 38 41 43 43 40 38 39 39 39 38
19 16 15 17 20 21 20 20 19 19 19 19 19 19 19 18 16 15 14 12 9 7 6 3 2 3 3 5 7 9 11 12 14 15 16 16 17 17 18 18 18 18 19 20 20 20 19 19 18 20 21 23 27 31 33 34 31 28 29 32 34 34 36 37 37 37 36 35 35 36 37 38 39 39 40 41 42 44 44 42 40 39 40 42 42
20 19 18 18 18 19 18 18 18 18 18 18 18 19 19 18 17 17 17 17 15 14 13 11 9 7 6 5 2 1 4 6 8 9 11 12 13 14 15 16 17 17 17 18 18 19 19 19 17 16 15 15 17 19 20 20 21 23 26 28 28 28 29 31 33 34 34 35 37 38 40 42 43 44 44 45 46 47 48 47 44 41 41 41 42
19 19 19 19 18 18 17 17 17 17 17 16 15 15 16 17 18 18 17 16 16 16 15 14 12 10 9 8 8 6 5 4 3 1 1 2 3 4 5 7 8 9 11 13 14 15 16 16 15 15 15 15 16 18 19 19 20 22 24 26 27 29 30 32 33 35 36 38 39 40 42 43 44 43 43 44 44 45 46 45 43 41 40 41 41
17 17 17 17 16 15 15 16 16 16 15 14 14 14 15 16 17 16 15 15 15 16 15 15 14 12 10 10 9 9 9 10 10 9 7 7 7 7 7 6 4 3 1 1 3 4 6 7 8 8 10 12 14 16 18 19 21 23 25 28 30 31 32 33 34 35 37 37 38 38 39 39 39 39 39 39 39 38 38 38 38 38 38 39 40
16 16 16 16 15 13 11 11 13 13 13 12 12 13 14 15 15 14 13 14 14 14 14 15 15 15 14 13 12 12 12 12 12 12 12 11 11 11 11 11 10 9 8 7 7 6 5 4 4 3 3 4 5 7 9 11 14 17 20 23 26 27 28 29 29 30 31 31 32 32 32 33 33 33 33 33 33 33 33 33 34 34 35 35 36
15 15 15 15 14 13 10 9 9 10 9 9 9 9 10 11 12 12 13 13 14 13 13 14 16 16 15 14 14 14 14 14 14 14 15 14 14 13 12 12 11 10 10 10 9 9 9 9 8 8 7 6 5 4 3 3 4 6 8 10 12 15 17 18 18 19 21 22 22 22 22 23 23 23 24 25 25 26 26 27 28 28 29 29 28
16 15 15 15 15 14 12 11 10 10 9 9 8 8 9 9 10 11 11 12 14 15 15 17 19 19 18 16 15 15 15 15 15 15 15 15 15 15 14 14 13 13 12 12 11 10 10 9 9 9 9 9 9 8 7 6 5 4 4 4 5 6 7 9 10 11 12 12 13 14 14 15 16 17 17 18 18 18 18 19 20 22 23 24 25
16 15 15 15 15 15 14 13 11 11 11 11 11 11 11 11 12 13 13 14 16 17 16 16 17 18 19 19 18 16 15 14 13 13 13 14 14 15 15 16 16 16 15 14 14 14 13 11 10 10 9 9 9 9 9 8 8 7 6 5 5 5 6 7 7 8 9 10 10 11 12 13 14 15 16 16 16 16 16 16 17 19 20 21 23
16 16 16 16 16 15 15 15 14 14 13 13 13 13 13 13 13 13 13 14 15 16 16 15 15 15 17 18 16 14 14 14 14 13 13 13 13 14 16 17 17 17 17 16 16 16 14 12 11 11 10 9 8 9 9 9 9 8 7 7 6 6 6 6 7 8 8 8 9 9 10 11 11 12 14 15 15 16 16 16 17 17 18 19 19
16 16 16 16 17 16 16 16 15 15 14 14 14 14 14 15 14 14 14 14 15 15 15 15 15 14 14 14 14 12 13 16 18 17 17 16 16 16 16 16 17 18 18 19 19 18 16 12 11 11 10 8 7 8 8 8 8 8 8 7 7 6 6 6 6 6 7 7 8 9 10 10 10 11 11 12 12 13 13 14 15 17 19 20 21
Wind_Direction
230 229 226 224 223 222 222 223 226 228 229 230 230 231 231 229 229 232 235 237 238 238 233 227 227 230 232 230 225 222 219 217 219 222 224 230 237 241 243 249 253 257 260 263 268 275 278 276 271 265 260 256 252 253 259 265 271 275 277 279 282 285 286 287 290 292 288 279 272 269 269 272 275 277 279 281 283 285 288 291 293 294 294 293 293
230 231 230 230 229 228 228 229 232 233 234 234 232 229 228 229 229 230 233 234 234 235 231 226 224 226 228 228 224 221 219 217 218 222 226 230 237 243 245 249 254 258 260 263 268 273 275 277 276 272 266 262 257 254 256 261 266 271 275 277 279 281 282 284 286 290 290 286 280 276 275 276 279 279 280 282 284 287 289 291 293 295 295 294 293
228 229 231 233 234 234 234 234 237 241 243 245 243 235 228 226 226 227 231 234 234 233 230 225 223 223 224 225 223 220 220 220 220 222 226 230 237 244 247 249 253 257 261 263 266 268 271 274 276 276 274 270 264 259 257 258 263 268 272 276 277 278 279 281 284 288 290 288 284 281 280 280 281 282 283 285 287 288 289 291 294 296 296 295 295
228 228 229 230 233 236 238 240 245 250 250 252 254 249 237 227 225 227 232 237 236 234 231 227 225 224 223 223 222 221 221 223 224 225 225 228 236 242 246 249 253 256 260 261 263 265 268 270 271 273 276 275 272 267 263 261 263 267 269 272 274 276 277 279 282 285 289 290 287 284 282 281 283 284 285 286 287 288 290 293 296 298 298 297 296
230 230 231 231 232 235 239 243 250 257 257 252 254 253 241 229 227 228 232 236 237 235 232 228 226 226 225 224 223 222 223 224 227 227 225 227 234 240 244 248 252 254 257 259 260 262 264 266 266 268 273 276 275 273 270 267 265 266 267 269 272 273 275 277 279 283 287 290 289 285 283 284 284 285 286 287 288 288 291 295 298 299 298 296 295
230 231 233 233 235 237 240 242 246 252 256 255 253 248 237 228 226 228 231 234 235 235 232 228 227 228 229 228 226 226 227 227 230 232 231 229 231 235 240 245 250 252 254 257 259 259 261 262 262 264 270 273 274 273 272 270 268 267 267 267 269 270 272 275 277 280 284 287 288 287 286 286 285 285 286 287 288 289 293 296 297 297 295 295 295
230 232 233 234 235 237 239 242 245 247 249 253 251 244 235 229 227 227 230 233 234 234 232 229 228 229 230 230 230 231 232 231 232 236 238 235 232 234 237 240 245 250 253 256 259 259 259 260 259 261 266 269 270 269 269 270 270 270 269 267 268 269 271 273 275 277 280 283 285 286 286 285 285 285 286 287 288 291 293 293 292 293 295 296 296
230 231 232 233 234 236 238 241 243 244 244 244 243 238 230 226 227 229 230 233 234 234 233 231 230 231 231 232 232 233 233 232 233 236 238 238 234 234 237 238 240 246 252 255 259 261 261 261 260 259 261 265 266 266 266 267 269 271 271 270 269 270 271 273 274 276 278 280 282 283 283 283 284 285 285 286 288 290 290 288 289 292 294 294 294
232 232 232 233 234 236 238 238 238 238 238 235 232 229 223 220 224 227 229 232 233 233 234 233 232 232 232 232 233 232 232 232 233 235 238 241 239 235 237 239 240 243 248 252 255 260 262 264 263 261 260 261 263 264 264 265 267 270 272 272 272 272 272 273 274 275 277 279 281 281 281 282 283 283 284 286 287 286 285 285 288 290 290 291 293
234 235 235 235 234 234 235 235 232 231 234 232 226 221 218 218 222 224 226 229 230 231 233 234 234 233 232 233 233 233 233 233 234 234 235 239 242 239 236 237 240 243 246 248 250 255 259 263 264 262 260 259 260 262 263 264 266 268 269 271 273 274 274 274 275 276 277 280 282 281 281 283 282 282 283 284 284 283 284 285 285 285 287 290 293
233 236 237 237 235 233 233 232 228 225 227 227 220 215 214 217 220 222 226 228 228 230 232 234 235 236 236 236 236 235 235 235 237 238 236 236 240 243 242 240 241 245 247 247 248 251 255 260 263 262 260 259 259 260 261 263 266 267 267 268 271 273 274 275 276 277 278 280 283 282 282 283 282 281 282 282 282 282 281 281 281 284 288 290 294
231 233 236 236 235 234 232 230 227 224 221 218 215 213 214 217 220 222 224 226 228 231 233 235 237 238 239 240 239 238 237 236 237 240 239 236 237 241 246 246 245 244 246 249 250 250 253 258 263 264 262 260 259 258 260 261 262 265 266 267 268 271 273 274 276 278 279 281 282 283 283 284 282 280 280 281 280 279 279 280 282 286 287 289 294
233 231 232 233 234 233 228 225 225 225 222 218 215 215 216 219 222 224 225 227 231 234 236 237 239 240 242 242 242 241 239 237 235 237 238 236 235 238 244 247 247 245 245 251 253 251 251 254 260 265 266 264 260 258 259 259 260 262 265 267 268 269 271 273 275 277 278 280 282 284 284 284 282 280 279 278 277 278 280 282 284 285 285 288 293
237 234 231 231 233 232 227 222 221 221 221 221 220 220 221 223 226 228 229 231 234 238 240 242 243 246 248 249 249 247 244 240 237 237 238 236 235 239 242 245 249 248 247 252 254 253 252 251 252 259 266 268 265 261 259 259 259 260 262 265 268 269 269 270 272 274 276 279 282 284 283 282 281 280 277 276 277 279 281 281 282 283 285 288 292
236 238 235 231 231 232 231 228 224 221 221 222 224 226 228 230 231 232 233 234 237 240 242 245 247 249 252 255 256 256 253 249 245 244 242 238 238 241 242 243 247 249 250 253 255 255 256 254 249 251 260 267 268 264 260 259 260 261 262 264 266 267 268 269 271 272 274 277 279 281 281 280 279 278 276 275 276 277 278 279 280 283 285 289 293
231 236 237 235 231 231 233 235 233 229 226 226 227 230 233 235 236 235 235 236 238 239 241 245 248 250 253 256 258 259 258 256 257 255 249 244 242 242 240 242 246 248 250 252 254 255 257 256 251 248 253 262 266 264 260 260 262 263 264 265 265 267 268 268 269 270 271 274 276 278 278 277 277 276 275 275 276 275 276 278 281 283 286 289 291
228 231 233 234 232 230 231 235 238 238 235 231 230 231 233 237 238 238 238 238 239 239 241 245 248 250 252 254 255 256 255 257 263 262 253 248 246 242 240 243 248 250 250 250 252 255 257 256 252 248 250 257 262 261 258 260 263 264 266 267 267 268 269 268 267 268 270 272 274 276 276 276 276 275 275 274 274 274 276 279 283 284 284 288 291
227 229 230 230 231 230 230 232 235 239 241 239 237 235 236 238 239 239 239 239 238 239 240 243 246 249 253 256 257 257 255 255 261 261 253 247 246 246 245 248 252 253 251 249 250 253 256 256 253 250 251 254 256 256 256 259 263 266 268 268 269 271 271 267 265 267 269 272 273 275 276 276 275 275 276 276 275 275 277 280 282 283 284 287 288
225 226 229 230 231 231 231 231 232 235 238 241 242 241 241 241 240 240 239 238 237 238 240 242 244 248 252 259 263 261 258 258 258 255 249 245 244 245 247 250 254 255 253 250 249 251 254 255 252 250 250 250 251 255 258 261 265 269 271 270 273 277 273 267 265 267 269 270 272 274 275 275 275 277 278 278 277 277 278 279 280 282 284 286 286
226 225 227 230 231 231 231 231 231 232 234 237 240 242 244 245 244 242 240 239 239 241 242 242 244 246 249 256 264 263 259 257 256 252 248 245 245 246 248 251 253 253 253 251 247 247 250 251 248 247 248 249 253 258 259 262 267 271 274 276 282 282 274 268 266 266 267 268 269 271 273 273 275 278 280 279 278 278 278 277 278 281 283 285 287
231 228 227 228 230 231 231 231 231 231 232 235 237 239 241 242 242 241 241 242 243 245 246 246 247 248 248 250 257 263 259 254 252 251 250 249 249 252 256 256 254 251 251 249 245 245 248 247 246 248 251 255 260 264 263 264 269 272 275 280 286 282 273 271 269 266 266 268 268 269 271 273 276 279 280 278 278 278 277 275 276 278 281 283 285
236 232 229 228 228 230 231 231 231 230 231 232 234 236 237 237 238 238 240 244 247 249 251 251 248 246 245 244 248 258 262 257 252 251 251 251 251 254 258 260 257 253 251 249 248 250 252 252 250 251 255 259 263 267 268 268 269 271 274 278 281 279 275 275 272 268 266 267 267 268 270 272 275 277 277 276 277 277 276 275 274 275 277 279 280
237 236 234 231 229 229 230 232 232 232 231 231 232 232 233 234 236 238 240 244 249 251 255 255 250 245 242 240 245 255 262 261 257 254 253 252 251 251 254 257 257 255 253 253 253 253 255 256 257 257 257 259 262 265 268 268 267 268 269 271 273 274 272 270 270 271 271 271 271 271 272 272 273 273 274 276 278 277 275 274 275 277 278 279 278
239 238 237 235 232 230 229 230 232 233 234 234 234 234 233 234 237 239 241 244 247 251 254 257 255 251 247 247 253 260 263 262 260 257 255 254 252 251 252 255 255 254 254 254 255 256 256 255 258 262 261 260 260 261 264 267 267 266 266 266 266 265 264 264 266 268 269 270 269 267 265 266 267 269 272 274 275 275 274 274 277 282 284 282 280
241 239 238 236 234 232 231 230 230 232 234 235 236 236 236 237 239 242 244 247 249 251 254 256 258 259 257 258 262 265 263 260 259 257 255 255 254 252 254 257 256 256 255 253 253 258 260 256 256 260 262 261 260 259 260 263 265 265 266 265 262 260 260 261 261 259 259 261 261 259 259 261 265 270 273 272 272 274 274 274 278 283 284 284 282
244 242 241 239 236 234 232 231 230 231 232 234 237 238 238 240 241 243 244 247 249 251 253 255 257 259 260 261 265 267 263 258 257 256 255 255 255 254 254 256 257 257 256 253 251 255 261 261 259 259 260 259 259 258 259 260 262 263 263 262 261 259 259 260 260 258 258 260 262 262 261 262 265 268 271 270 271 274 276 277 278 280 281 282 283
251 246 245 243 239 236 233 231 230 231 232 233 235 238 239 241 242 243 244 246 249 251 253 255 256 258 260 262 266 269 265 258 254 255 254 254 256 256 255 255 256 256 257 256 253 254 258 262 262 262 261 260 258 256 257 257 258 259 260 260 260 260 260 261 261 260 261 264 266 266 264 263 264 265 267 268 272 275 278 278 277 278 279 280 282
261 254 248 245 242 239 236 233 231 231 231 233 234 237 240 242 244 245 246 248 250 252 253 255 257 259 261 263 265 267 265 258 254 255 257 256 255 255 254 253 254 255 257 259 258 256 257 259 260 261 261 260 257 255 253 254 255 257 260 260 260 260 261 261 261 263 265 266 267 267 266 265 265 264 265 269 274 277 278 277 277 280 282 281 282
265 262 256 248 244 241 239 236 234 233 232 232 234 236 238 241 244 246 247 249 251 253 254 256 257 259 261 264 265 265 263 259 256 258 260 258 254 252 252 251 250 251 254 257 258 257 256 256 256 257 259 259 258 255 253 254 255 258 260 260 260 261 262 263 264 266 267 267 269 270 268 266 265 265 266 271 275 277 278 277 277 281 283 282 281
276 265 258 250 243 240 239 238 236 235 234 234 235 236 238 240 242 244 246 248 249 252 254 255 257 259 261 262 263 262 260 259 258 259 260 257 253 252 250 250 249 248 249 252 254 254 254 253 253 254 257 259 260 259 258 257 257 258 259 260 261 262 264 265 266 267 266 266 267 269 269 269 268 267 268 270 271 273 277 279 279 281 282 282 281
316 276 259 251 243 236 234 235 235 234 235 236 237 239 240 242 243 244 245 246 247 249 251 253 255 257 259 259 257 256 255 255 256 257 256 254 252 250 249 248 248 247 247 249 250 252 252 253 253 253 255 258 261 262 262 261 260 259 259 259 260 262 264 266 268 268 265 263 264 267 269 270 269 266 267 267 266 269 276 279 280 281 282 282 281
360 322 253 243 239 233 228 229 230 230 231 233 236 238 241 242 243 245 245 246 246 247 249 251 252 253 254 254 252 251 252 254 255 256 255 253 251 249 247 246 245 245 245 247 249 251 252 252 253 253 254 257 260 263 263 262 261 260 259 259 259 260 260 263 266 265 262 261 264 266 268 269 269 269 268 265 264 271 278 278 277 279 281 280 279
25 33 80 186 206 216 220 223 224 223 224 227 230 233 237 238 240 242 243 244 245 245 246 247 248 248 249 250 251 252 253 254 255 256 256 255 254 251 249 247 246 245 246 247 250 254 255 255 254 255 256 258 261 263 264 263 261 259 259 259 259 259 258 258 260 261 262 263 263 263 263 266 269 269 265 264 267 273 276 274 273 276 278 279 279
35 38 50 84 123 151 166 183 204 210 213 216 220 224 229 233 235 238 239 240 242 243 244 245 246 246 247 250 253 255 255 256 256 257 257 257 256 255 254 253 251 251 251 252 255 257 259 259 259 259 260 261 261 262 263 263 261 258 258 258 258 258 257 254 254 257 261 263 262 259 258 260 262 261 259 262 268 269 267 267 269 272 274 276 279
37 41 42 50 68 95 112 122 145 171 186 197 206 213 220 225 229 233 236 239 242 244 245 245 246 247 249 251 253 254 255 255 257 257 257 257 257 257 256 256 255 255 254 256 257 258 260 262 263 263 263 261 260 261 261 261 259 257 255 254 254 254 254 251 249 250 255 259 260 259 256 254 256 258 260 263 266 266 264 264 267 269 271 273 277
35 42 43 42 47 60 78 95 110 127 145 166 185 201 212 221 228 233 237 241 244 246 247 248 249 249 250 251 252 253 254 255 255 256 257 257 257 257 257 256 256 256 255 256 257 258 260 262 263 263 262 260 259 260 261 262 261 257 253 251 250 250 249 248 248 248 251 254 256 257 257 257 258 260 263 265 267 266 266 266 267 269 272 275 279
37 40 40 39 42 49 60 74 86 96 112 132 150 176 199 214 225 232 237 242 246 250 253 253 254 254 254 254 254 255 255 255 256 256 258 259 259 259 258 256 255 255 255 257 259 260 261 262 262 262 262 262 263 264 265 265 263 258 253 251 251 249 247 248 251 252 251 249 249 251 255 258 259 260 262 264 265 264 266 268 270 271 273 276 279
35 39 35 32 38 45 50 56 66 75 90 113 132 149 169 189 204 212 221 231 239 245 250 252 254 257 259 260 261 261 260 260 259 259 260 261 261 261 259 257 256 255 255 257 259 260 261 262 264 265 266 266 267 268 268 266 263 257 251 250 251 249 247 247 250 250 249 247 247 248 249 252 256 260 262 263 264 264 265 267 268 269 271 274 276
27 32 28 27 39 46 42 42 51 59 63 73 90 112 144 174 192 200 209 218 224 230 236 240 244 249 254 258 260 258 255 255 256 257 258 257 256 256 256 256 258 259 259 260 260 261 261 262 263 264 265 265 266 266 265 264 261 255 250 249 248 246 244 244 247 249 251 251 251 251 250 251 255 260 263 265 269 268 265 266 268 269 269 271 272
23 29 28 34 49 53 40 30 38 48 53 57 60 64 76 99 125 170 215 230 233 233 234 237 242 246 250 255 259 256 252 251 253 254 253 252 252 254 256 258 261 264 264 264 265 266 266 264 263 262 261 261 262 263 263 261 258 254 250 247 244 241 240 242 245 249 251 251 250 250 252 254 258 262 266 271 274 270 264 263 265 268 270 272 270
29 33 33 36 46 52 48 40 37 38 41 45 46 47 50 54 57 59 56 18 260 235 225 225 229 232 235 240 245 249 252 257 262 263 261 258 256 257 258 260 262 264 265 266 269 272 274 273 268 261 256 253 252 254 255 255 254 251 246 241 238 239 242 244 245 246 248 250 252 254 255 258 261 265 268 270 271 269 263 259 260 264 270 273 272
30 31 30 30 33 38 44 45 43 40 38 36 34 32 32 33 37 43 46 46 46 48 54 76 140 169 187 208 221 228 232 238 245 250 253 253 252 253 255 259 262 266 269 270 270 272 279 285 279 264 254 250 249 249 250 249 246 244 241 237 236 240 243 245 247 249 251 255 260 262 264 265 267 267 268 268 269 269 268 267 266 265 267 269 270
22 23 25 25 23 24 31 38 42 42 41 36 30 28 28 29 32 36 38 40 43 44 44 48 54 58 63 70 64 267 238 228 229 235 240 241 242 244 248 252 256 262 268 272 272 270 274 281 279 269 263 262 257 256 258 257 251 250 251 250 249 251 252 252 255 258 260 261 263 264 266 268 268 268 268 268 268 269 270 272 272 270 268 268 268
18 19 21 23 24 28 35 39 39 41 44 40 32 26 25 28 35 41 43 43 43 43 42 45 47 48 52 57 54 47 44 53 64 84 165 186 201 220 232 241 250 260 267 271 273 271 269 270 269 264 261 260 255 253 256 259 257 256 257 258 259 260 260 260 261 263 263 264 264 264 264 265 266 267 268 269 269 269 269 269 269 267 266 266 264
16 18 19 21 26 35 44 46 44 46 46 41 34 31 28 25 30 41 49 48 44 42 42 43 44 45 47 49 52 54 56 55 56 59 63 70 78 83 85 87 86 74 39 305 290 280 269 265 263 260 257 256 254 251 250 250 250 251 253 255 257 258 258 258 259 259 260 261 262 263 263 264 266 267 268 269 269 269 267 266 265 263 261 261 260
14 15 15 17 23 32 40 42 43 47 46 37 32 36 37 32 30 37 44 42 36 33 35 34 33 35 37 38 39 43 46 46 46 45 43 44 49 56 61 63 64 62 59 56 50 40 27 14 358 339 302 270 261 259 257 254 253 252 253 253 254 255 256 256 256 257 258 259 260 261 262 263 264 265 266 267 267 267 266 265 264 263 262 261 261
14 13 12 12 15 21 22 17 15 23 28 26 23 26 29 26 22 26 31 29 19 12 9 6 5 9 16 19 21 24 27 29 30 29 27 25 25 26 29 33 35 37 38 36 31 23 16 11 4 359 356 354 348 337 318 295 277 268 265 262 259 258 258 258 259 260 261 261 262 264 265 266 267 267 268 268 267 267 266 266 266 266 266 266 266
18 16 14 11 11 12 11 6 358 353 352 352 355 359 359 354 349 346 348 349 347 344 342 340 340 344 350 355 357 360 4 11 17 20 18 15 14 13 12 13 14 15 15 12 7 3 1 359 356 352 348 344 342 341 339 336 334 326 313 303 293 283 278 276 275 275 275 274 275 277 278 278 279 279 279 279 278 278 278 278 276 275 274 273 273
20 19 19 17 15 12 10 8 4 357 349 344 342 340 337 334 330 325 320 320 323 325 325 323 322 326 333 340 345 350 353 357 3 9 9 7 5 2 358 356 356 357 357 355 353 351 350 349 346 342 339 335 331 329 327 328 331 332 328 323 315 306 301 297 294 291 289 286 283 281 282 283 285 286 285 284 283 283 285 286 283 279 277 274 269
14 15 17 17 17 15 14 12 10 6 1 356 350 344 340 339 337 333 329 327 328 329 329 327 325 325 329 334 340 344 343 339 340 344 348 349 348 346 345 345 345 344 344 346 347 347 345 341 336 334 335 333 327 322 319 318 318 317 317 318 321 321 319 315 309 302 298 293 289 286 285 283 284 284 283 281 279 277 278 277 272 268 265 261 254
13 14 15 16 15 16 16 14 12 9 5 0 356 351 347 344 342 339 337 336 336 336 337 337 338 339 340 341 341 336 328 323 324 327 330 333 333 333 335 337 339 339 339 340 341 341 337 329 320 320 324 326 323 321 320 319 316 313 311 313 320 325 327 325 321 317 313 307 300 296 294 291 289 287 285 282 278 274 272 270 264 257 253 249 243
Height
3061 3064 3067 3070 3071 3073 3076 3078 3080 3083 3086 3088 3091 3096 3100 3103 3106 3109 3111 3113 3116 3118 3120 3122 3123 3124 3125 3126 3127 3129 3130 3132 3133 3135 3136 3138 3139 3141 3142 3143 3144 3145 3145 3145 3145 3145 3146 3146 3146 3146 3145 3144 3144 3144 3144 3145 3146 3146 3146 3146 3146 3146 3145 3145 3144 3144 3145 3146 3145 3145 3144 3144 3144 3144 3143 3143 3142 3141 3140 3140 3139 3137 3136 3135 3134
3057 3060 3063 3065 3067 3068 3070 3072 3075 3076 3077 3078 3081 3086 3091 3096 3100 3103 3105 3108 3111 3114 3117 3119 3120 3121 3122 3123 3125 3126 3128 3129 3130 3132 3133 3135 3137 3138 3139 3141 3142 3143 3143 3143 3143 3144 3144 3144 3145 3144 3144 3143 3142 3142 3142 3142 3143 3143 3144 3144 3144 3144 3143 3142 3142 3142 3142 3143 3143 3142 3141 3141 3141 3141 3140 3140 3139 3138 3138 3137 3136 3134 3133 3132 3131
3052 3055 3058 3061 3062 3063 3065 3067 3071 3074 3075 3076 3077 3080 3084 3089 3093 3097 3100 3103 3106 3109 3113 3115 3116 3118 3119 3120 3121 3123 3125 3127 3128 3129 3130 3132 3134 3135 3137 3138 3139 3140 3141 3141 3142 3142 3142 3142 3143 3142 3142 3141 3140 3140 3139 3140 3140 3141 3141 3142 3142 3141 3141 3140 3139 3139 3139 3140 3140 3140 3139 3138 3138 3138 3137 3136 3136 3135 3134 3134 3133 3131 3130 3129 3128
3047 3049 3051 3054 3056 3058 3061 3064 3067 3071 3074 3075 3077 3080 3083 3086 3089 3092 3095 3097 3100 3104 3108 3111 3113 3114 3115 3117 3118 3120 3122 3124 3125 3126 3127 3129 3131 3132 3134 3135 3136 3138 3138 3139 3140 3140 3140 3140 3140 3140 3139 3139 3139 3138 3137 3137 3137 3138 3139 3139 3139 3139 3138 3138 3137 3136 3136 3136 3137 3137 3136 3136 3135 3135 3134 3133 3133 3132 3131 3131 3130 3128 3127 3126 3125
3042 3044 3047 3049 3051 3052 3056 3060 3064 3067 3069 3071 3075 3080 3083 3086 3088 3090 3091 3093 3095 3098 3102 3105 3108 3110 3112 3114 3115 3117 3118 3120 3122 3123 3125 3125 3127 3129 3130 3132 3133 3135 3136 3136 3137 3137 3137 3138 3138 3138 3137 3137 3137 3136 3136 3135 3135 3135 3136 3136 3136 3136 3135 3135 3134 3134 3133 3133 3133 3134 3133 3133 3132 3131 3131 3130 3130 3129 3128 3127 3126 3125 3124 3122 3121
3038 3040 3042 3044 3047 3049 3051 3055 3058 3061 3063 3066 3072 3077 3080 3082 3084 3087 3088 3090 3091 3093 3096 3100 3103 3105 3108 3111 3112 3113 3115 3116 3118 3120 3121 3122 3123 3125 3126 3128 3130 3131 3132 3133 3134 3134 3135 3135 3135 3135 3134 3134 3134 3134 3134 3133 3133 3133 3133 3133 3134 3133 3132 3132 3131 3131 3130 3130 3130 3130 3130 3129 3129 3128 3128 3127 3126 3126 3125 3124 3123 3122 3120 3119 3118
3034 3036 3038 3040 3042 3045 3048 3051 3054 3057 3059 3061 3066 3072 3076 3078 3079 3082 3084 3086 3088 3089 3091 3094 3097 3100 3103 3106 3108 3109 3110 3111 3113 3116 3118 3119 3120 3121 3122 3124 3126 3127 3129 3130 3130 3131 3132 3132 3132 3132 3131 3131 3132 3132 3131 3130 3130 3130 3130 3130 3130 3130 3129 3129 3128 3128 3128 3127 3127 3126 3126 3126 3125 3124 3124 3124 3123 3123 3122 3121 3119 3118 3117 3116 3115
3030 3032 3034 3036 3038 3041 3045 3048 3051 3053 3055 3057 3060 3066 3071 3074 3075 3077 3079 3081 3084 3086 3087 3090 3092 3095 3098 3100 3102 3104 3105 3106 3109 3112 3114 3115 3116 3117 3119 3120 3121 3123 3125 3126 3127 3127 3128 3129 3129 3129 3129 3128 3128 3128 3128 3128 3127 3127 3127 3127 3127 3126 3126 3126 3125 3125 3125 3124 3124 3123 3122 3122 3122 3121 3121 3120 3120 3120 3119 3117 3116 3115 3114 3113 3111
3027 3029 3030 3032 3035 3038 3041 3043 3046 3048 3050 3052 3055 3060 3066 3070 3071 3073 3075 3077 3079 3081 3083 3085 3087 3089 3092 3094 3096 3098 3099 3101 3104 3107 3110 3112 3113 3114 3115 3116 3117 3118 3120 3122 3123 3124 3124 3125 3125 3125 3126 3125 3125 3125 3125 3124 3124 3124 3124 3124 3123 3123 3122 3122 3121 3121 3121 3121 3121 3120 3119 3119 3119 3118 3118 3117 3117 3116 3115 3113 3112 3112 3110 3109 3108
3024 3025 3027 3030 3032 3034 3036 3038 3040 3043 3045 3049 3052 3056 3061 3065 3067 3068 3070 3072 3074 3076 3077 3079 3081 3083 3085 3087 3090 3092 3094 3097 3100 3103 3106 3108 3109 3110 3111 3112 3112 3113 3114 3117 3118 3120 3120 3120 3121 3121 3122 3122 3122 3121 3121 3121 3121 3120 3121 3121 3120 3119 3119 3118 3117 3118 3118 3117 3117 3117 3116 3116 3116 3115 3115 3114 3113 3112 3111 3110 3109 3108 3107 3106 3105
3020 3022 3025 3027 3029 3030 3032 3033 3035 3038 3040 3044 3048 3051 3056 3059 3062 3063 3065 3067 3069 3071 3072 3073 3075 3077 3079 3081 3083 3085 3087 3091 3094 3096 3100 3102 3104 3105 3106 3107 3108 3108 3109 3111 3114 3115 3116 3116 3116 3117 3117 3118 3118 3118 3118 3118 3117 3117 3117 3117 3116 3116 3115 3114 3113 3114 3113 3113 3113 3113 3112 3112 3113 3112 3111 3111 3110 3109 3108 3107 3105 3105 3104 3102 3101
3018 3019 3021 3023 3025 3026 3028 3030 3031 3034 3037 3039 3043 3047 3051 3054 3056 3059 3060 3063 3065 3066 3067 3069 3070 3072 3073 3074 3076 3078 3081 3085 3088 3089 3092 3095 3098 3100 3102 3103 3104 3105 3105 3106 3108 3110 3111 3111 3112 3112 3113 3113 3113 3113 3114 3114 3114 3113 3113 3113 3112 3112 3111 3110 3109 3109 3109 3109 3109 3109 3109 3109 3109 3108 3108 3107 3106 3105 3104 3103 3102 3101 3100 3099 3098
3015 3016 3018 3020 3021 3023 3025 3026 3028 3030 3033 3035 3038 3043 3046 3049 3052 3054 3056 3058 3060 3061 3063 3064 3066 3067 3068 3069 3070 3072 3074 3077 3080 3082 3083 3086 3090 3094 3096 3098 3099 3100 3101 3101 3103 3105 3106 3106 3107 3108 3108 3108 3109 3109 3109 3110 3110 3109 3109 3109 3108 3107 3107 3106 3106 3105 3105 3105 3105 3105 3105 3105 3105 3105 3104 3103 3102 3101 3100 3099 3098 3097 3096 3095 3095
3012 3013 3015 3016 3018 3019 3021 3023 3025 3027 3029 3031 3035 3039 3042 3045 3048 3050 3052 3054 3055 3057 3059 3061 3062 3064 3065 3067 3068 3069 3070 3072 3074 3075 3076 3079 3082 3086 3089 3092 3093 3095 3096 3097 3098 3100 3101 3102 3102 3103 3103 3103 3104 3104 3104 3105 3105 3105 3105 3104 3104 3103 3103 3103 3102 3101 3101 3101 3101 3101 3101 3101 3101 3101 3100 3099 3097 3097 3096 3095 3094 3093 3092 3092 3091
3008 3010 3011 3013 3015 3016 3018 3020 3022 3024 3026 3028 3031 3035 3038 3041 3043 3046 3048 3050 3052 3054 3056 3057 3059 3061 3062 3064 3066 3068 3070 3071 3071 3071 3071 3074 3077 3080 3082 3085 3087 3089 3090 3092 3094 3096 3096 3096 3097 3098 3098 3098 3099 3100 3100 3100 3100 3100 3100 3100 3100 3099 3099 3099 3098 3098 3097 3097 3097 3097 3097 3097 3096 3096 3096 3094 3093 3093 3091 3090 3089 3089 3088 3088 3087
3003 3005 3007 3009 3010 3012 3014 3016 3018 3020 3022 3024 3026 3030 3033 3036 3039 3041 3043 3045 3047 3049 3051 3053 3055 3056 3058 3059 3061 3063 3066 3068 3069 3069 3070 3072 3074 3075 3077 3079 3081 3083 3085 3087 3088 3089 3090 3091 3091 3092 3093 3094 3094 3095 3095 3094 3095 3095 3095 3096 3096 3095 3094 3095 3095 3094 3093 3093 3093 3093 3093 3092 3092 3092 3091 3090 3089 3088 3087 3085 3085 3085 3084 3083 3083
2999 3000 3002 3004 3005 3007 3009 3011 3013 3015 3017 3019 3022 3025 3028 3030 3033 3035 3037 3039 3042 3044 3046 3048 3050 3051 3053 3054 3055 3056 3059 3063 3065 3066 3068 3070 3071 3072 3074 3076 3077 3079 3080 3082 3083 3084 3084 3085 3085 3087 3089 3089 3089 3090 3090 3089 3089 3090 3091 3091 3091 3090 3090 3091 3091 3090 3090 3090 3089 3089 3089 3088 3087 3087 3087 3086 3085 3084 3082 3081 3081 3080 3079 3079 3079
2994 2995 2996 2998 2999 3002 3004 3007 3009 3010 3012 3015 3017 3020 3022 3025 3027 3029 3031 3033 3036 3039 3041 3044 3045 3046 3048 3050 3051 3051 3053 3057 3061 3062 3063 3065 3068 3070 3072 3073 3073 3075 3076 3078 3078 3079 3079 3080 3080 3081 3083 3084 3084 3084 3084 3084 3084 3085 3085 3086 3086 3086 3086 3086 3087 3086 3086 3086 3086 3085 3084 3084 3083 3083 3082 3082 3081 3079 3078 3077 3077 3076 3075 3075 3074
2988 2990 2991 2993 2995 2997 2999 3002 3004 3006 3008 3011 3013 3015 3017 3019 3021 3023 3026 3028 3030 3033 3036 3038 3040 3042 3043 3045 3046 3047 3048 3052 3056 3058 3059 3061 3063 3064 3066 3066 3068 3070 3073 3073 3073 3073 3074 3075 3075 3076 3078 3078 3078 3078 3078 3079 3079 3080 3080 3080 3081 3082 3082 3082 3082 3082 3082 3082 3082 3081 3080 3079 3079 3078 3078 3077 3076 3075 3074 3074 3073 3072 3071 3071 3069
2983 2985 2987 2989 2991 2993 2995 2997 2999 3002 3004 3007 3009 3011 3013 3015 3017 3019 3021 3024 3026 3029 3031 3033 3035 3037 3038 3040 3041 3042 3044 3047 3051 3054 3056 3058 3059 3060 3060 3060 3062 3065 3067 3067 3067 3068 3069 3069 3070 3072 3073 3073 3072 3072 3073 3074 3074 3075 3075 3075 3077 3079 3078 3077 3077 3077 3077 3077 3078 3077 3076 3075 3074 3074 3074 3073 3072 3071 3071 3070 3069 3068 3067 3066 3065
2977 2980 2982 2984 2986 2988 2990 2992 2994 2997 2999 3001 3004 3006 3009 3011 3013 3015 3018 3020 3022 3024 3027 3029 3030 3032 3034 3035 3037 3038 3040 3043 3046 3049 3051 3053 3054 3055 3054 3055 3058 3061 3061 3061 3062 3064 3066 3066 3067 3068 3068 3067 3067 3067 3068 3068 3069 3069 3069 3071 3073 3074 3073 3072 3072 3071 3071 3072 3072 3072 3071 3070 3070 3070 3069 3068 3068 3067 3067 3065 3065 3064 3063 3062 3061
2971 2973 2976 2978 2981 2983 2985 2987 2989 2992 2994 2996 2999 3001 3004 3007 3009 3011 3014 3016 3018 3020 3021 3023 3025 3027 3028 3030 3032 3034 3037 3039 3041 3043 3045 3047 3048 3048 3048 3049 3053 3056 3055 3055 3057 3060 3062 3063 3064 3064 3063 3062 3062 3062 3062 3063 3064 3064 3065 3066 3068 3068 3067 3067 3067 3066 3066 3067 3067 3067 3067 3066 3066 3065 3064 3064 3063 3063 3061 3060 3060 3059 3058 3057 3057
2964 2966 2969 2971 2974 2977 2979 2981 2984 2986 2989 2991 2994 2996 2999 3002 3004 3007 3009 3011 3013 3014 3016 3018 3019 3021 3022 3024 3026 3029 3032 3034 3036 3038 3039 3041 3042 3043 3042 3044 3048 3049 3050 3051 3054 3056 3058 3058 3059 3060 3059 3058 3058 3058 3058 3058 3059 3060 3060 3061 3062 3062 3062 3062 3062 3062 3063 3063 3063 3063 3063 3061 3060 3059 3059 3059 3059 3058 3056 3055 3055 3054 3054 3053 3052
2958 2960 2962 2964 2967 2970 2972 2975 2977 2980 2983 2985 2988 2991 2994 2997 2999 3002 3004 3005 3007 3009 3011 3012 3014 3015 3017 3019 3021 3024 3027 3029 3031 3033 3034 3035 3036 3037 3037 3039 3042 3043 3044 3046 3048 3051 3053 3054 3054 3055 3055 3054 3054 3054 3053 3053 3054 3055 3056 3056 3056 3056 3055 3057 3058 3058 3058 3058 3058 3057 3056 3055 3054 3053 3054 3055 3054 3053 3052 3051 3051 3050 3049 3048 3047
2951 2953 2955 2957 2959 2962 2964 2967 2970 2973 2976 2979 2981 2984 2988 2991 2993 2996 2998 3000 3001 3003 3005 3007 3008 3010 3012 3014 3017 3019 3022 3024 3026 3028 3029 3029 3030 3032 3032 3033 3035 3037 3038 3040 3042 3045 3047 3048 3049 3049 3049 3049 3050 3049 3048 3048 3049 3050 3051 3051 3050 3050 3050 3051 3051 3051 3051 3051 3051 3050 3050 3050 3048 3047 3049 3050 3050 3049 3048 3047 3046 3046 3045 3044 3043
2944 2945 2946 2949 2951 2953 2956 2959 2963 2966 2969 2972 2975 2978 2981 2984 2987 2990 2992 2994 2995 2997 3000 3002 3003 3005 3007 3010 3012 3015 3017 3019 3020 3022 3023 3024 3024 3026 3027 3027 3029 3031 3032 3034 3036 3039 3041 3043 3044 3043 3043 3044 3044 3043 3043 3043 3044 3044 3044 3044 3044 3044 3045 3045 3044 3044 3045 3045 3045 3045 3045 3045 3043 3042 3043 3044 3044 3043 3043 3043 3042 3041 3040 3040 3039
2935 2936 2938 2939 2942 2945 2948 2951 2955 2958 2962 2965 2968 2971 2975 2978 2981 2983 2986 2988 2990 2991 2994 2996 2998 3000 3002 3005 3007 3010 3011 3013 3014 3016 3017 3018 3019 3020 3021 3022 3024 3025 3026 3028 3031 3033 3036 3037 3037 3037 3037 3037 3036 3036 3037 3037 3036 3036 3036 3037 3038 3039 3039 3039 3038 3038 3039 3040 3040 3040 3040 3039 3037 3036 3036 3037 3038 3038 3038 3037 3037 3037 3036 3035 3034
2926 2927 2928 2930 2933 2936 2940 2943 2947 2951 2955 2959 2962 2965 2968 2971 2974 2978 2981 2983 2984 2986 2988 2990 2992 2994 2997 2999 3002 3003 3004 3006 3008 3010 3012 3012 3013 3014 3014 3015 3017 3019 3020 3022 3024 3026 3028 3029 3028 3028 3029 3029 3029 3029 3029 3029 3029 3030 3030 3031 3033 3033 3034 3033 3032 3032 3033 3034 3034 3034 3034 3032 3030 3030 3031 3032 3033 3033 3032 3032 3032 3032 3031 3030 3029
2918 2917 2918 2920 2924 2928 2932 2936 2940 2944 2948 2952 2956 2959 2962 2965 2968 2971 2974 2977 2979 2980 2983 2985 2987 2989 2991 2993 2995 2996 2997 2999 3001 3004 3005 3006 3006 3006 3007 3009 3010 3012 3014 3015 3015 3016 3017 3018 3019 3020 3021 3022 3022 3022 3022 3023 3023 3024 3025 3026 3027 3027 3027 3027 3026 3027 3028 3028 3028 3028 3028 3026 3025 3026 3027 3028 3028 3027 3026 3026 3026 3027 3026 3025 3024
2911 2907 2906 2908 2913 2919 2924 2929 2934 2938 2943 2947 2950 2953 2956 2959 2962 2965 2968 2970 2973 2975 2977 2979 2981 2983 2985 2987 2988 2989 2991 2993 2995 2996 2998 2998 2999 3000 3001 3003 3004 3005 3007 3008 3006 3005 3007 3009 3010 3012 3014 3015 3015 3016 3017 3018 3018 3018 3020 3020 3021 3021 3021 3021 3021 3022 3022 3021 3021 3022 3021 3020 3020 3021 3022 3021 3021 3021 3020 3020 3020 3020 3020 3020 3019
2902 2895 2894 2897 2903 2910 2916 2922 2928 2933 2937 2942 2945 2948 2951 2954 2956 2959 2962 2964 2967 2969 2971 2973 2975 2977 2979 2980 2982 2983 2984 2986 2988 2990 2991 2991 2992 2993 2995 2996 2997 2999 3000 2999 2997 2997 2999 3001 3002 3003 3005 3007 3008 3010 3011 3012 3011 3012 3013 3014 3014 3015 3015 3015 3016 3016 3015 3015 3015 3015 3015 3015 3015 3016 3016 3015 3015 3015 3014 3015 3015 3015 3014 3014 3014
2898 2890 2887 2889 2896 2904 2911 2917 2922 2928 2933 2937 2940 2943 2946 2949 2951 2953 2956 2958 2960 2962 2964 2966 2969 2971 2972 2973 2975 2977 2978 2979 2981 2983 2984 2985 2986 2987 2988 2989 2990 2991 2992 2991 2989 2989 2991 2994 2994 2995 2997 2999 3001 3003 3004 3004 3004 3005 3006 3006 3007 3008 3009 3009 3009 3008 3007 3008 3009 3008 3009 3009 3009 3010 3010 3010 3009 3009 3009 3010 3010 3009 3009 3009 3009
2905 2898 2893 2891 2893 2900 2908 2913 2918 2923 2928 2932 2935 2938 2941 2944 2946 2948 2951 2953 2954 2956 2958 2960 2962 2964 2966 2967 2969 2970 2972 2973 2975 2977 2978 2979 2980 2980 2981 2982 2983 2983 2984 2983 2982 2982 2984 2986 2987 2988 2990 2991 2993 2995 2996 2996 2997 2999 2999 2999 3000 3001 3001 3002 3001 3000 3000 3002 3002 3003 3003 3004 3003 3004 3004 3003 3003 3003 3003 3004 3004 3004 3003 3004 3004
2914 2909 2906 2902 2900 2902 2907 2912 2916 2920 2924 2928 2931 2934 2937 2940 2942 2945 2947 2948 2950 2952 2953 2955 2956 2958 2960 2961 2962 2964 2965 2967 2969 2971 2972 2972 2973 2974 2974 2975 2976 2976 2976 2976 2976 2976 2978 2979 2980 2982 2984 2985 2986 2987 2988 2988 2989 2990 2991 2992 2993 2993 2993 2993 2993 2993 2994 2995 2996 2997 2997 2997 2997 2998 2998 2997 2996 2997 2997 2998 2998 2998 2998 2999 3000
2921 2917 2914 2911 2910 2909 2910 2913 2916 2919 2921 2924 2928 2931 2934 2936 2939 2941 2943 2944 2946 2947 2948 2949 2951 2953 2954 2955 2956 2958 2959 2960 2962 2963 2965 2966 2967 2967 2968 2968 2968 2969 2969 2969 2969 2970 2971 2973 2974 2976 2977 2977 2978 2979 2979 2980 2981 2981 2982 2983 2984 2984 2984 2984 2985 2986 2987 2987 2988 2989 2989 2990 2990 2991 2991 2990 2990 2991 2991 2991 2992 2992 2993 2994 2994
2927 2924 2920 2918 2917 2916 2916 2917 2919 2920 2921 2924 2927 2929 2932 2934 2936 2938 2940 2941 2942 2943 2944 2945 2946 2947 2949 2950 2951 2952 2953 2954 2955 2956 2958 2959 2960 2961 2961 2961 2961 2962 2963 2963 2963 2963 2965 2966 2967 2968 2969 2969 2970 2971 2972 2973 2973 2973 2973 2973 2973 2974 2976 2977 2978 2979 2979 2979 2980 2981 2981 2982 2983 2984 2984 2984 2984 2984 2985 2985 2986 2987 2988 2988 2989
2931 2929 2927 2925 2924 2923 2922 2922 2922 2923 2924 2926 2927 2929 2931 2933 2935 2936 2937 2938 2938 2939 2940 2941 2942 2942 2943 2944 2945 2946 2947 2948 2949 2950 2951 2952 2953 2954 2954 2955 2955 2956 2956 2956 2956 2957 2958 2958 2958 2959 2961 2961 2962 2963 2964 2965 2966 2966 2965 2965 2966 2967 2968 2969 2971 2972 2973 2973 2973 2974 2975 2976 2977 2978 2978 2977 2978 2978 2979 2979 2980 2981 2982 2983 2983
2935 2933 2932 2931 2930 2928 2927 2926 2925 2926 2926 2926 2927 2929 2930 2931 2932 2933 2934 2934 2935 2935 2936 2937 2937 2938 2939 2939 2940 2940 2941 2942 2943 2944 2945 2946 2947 2947 2948 2948 2949 2949 2950 2950 2950 2951 2951 2951 2951 2952 2953 2954 2954 2954 2956 2956 2957 2958 2958 2958 2959 2960 2961 2962 2963 2965 2966 2966 2967 2967 2968 2970 2971 2971 2972 2972 2972 2973 2974 2974 2975 2975 2976 2976 2977
2938 2937 2935 2934 2933 2931 2930 2929 2929 2928 2927 2927 2928 2928 2929 2929 2930 2931 2931 2931 2932 2932 2933 2933 2934 2935 2935 2935 2936 2936 2937 2937 2938 2939 2940 2940 2941 2942 2942 2942 2943 2943 2944 2944 2944 2944 2944 2944 2945 2946 2946 2946 2946 2947 2948 2948 2949 2949 2950 2951 2951 2952 2953 2955 2956 2958 2959 2960 2961 2962 2962 2963 2965 2966 2966 2967 2967 2968 2968 2968 2969 2969 2969 2969 2970
2941 2940 2938 2937 2935 2933 2932 2932 2931 2931 2930 2929 2929 2929 2929 2928 2928 2929 2930 2930 2930 2931 2931 2931 2931 2932 2932 2932 2933 2933 2933 2933 2934 2934 2935 2935 2936 2937 2937 2938 2938 2938 2938 2938 2937 2937 2937 2937 2938 2939 2939 2940 2940 2940 2940 2941 2941 2942 2943 2944 2944 2945 2946 2949 2950 2952 2953 2954 2955 2956 2957 2958 2959 2960 2961 2961 2962 2962 2962 2962 2962 2963 2963 2963 2964
2943 2942 2941 2940 2938 2936 2935 2934 2933 2933 2932 2932 2932 2931 2930 2929 2929 2929 2930 2930 2930 2930 2929 2929 2929 2929 2929 2929 2929 2930 2930 2930 2931 2931 2931 2931 2932 2933 2933 2933 2933 2933 2933 2933 2932 2932 2931 2930 2930 2931 2932 2933 2934 2934 2934 2934 2935 2935 2936 2937 2938 2940 2942 2943 2945 2946 2947 2948 2949 2950 2951 2952 2954 2954 2955 2956 2956 2956 2956 2956 2956 2956 2956 2957 2958
2945 2944 2943 2942 2941 2939 2937 2936 2936 2935 2935 2934 2934 2933 2932 2932 2931 2931 2931 2930 2929 2929 2929 2928 2928 2928 2927 2927 2927 2927 2927 2927 2927 2928 2928 2928 2928 2929 2929 2929 2929 2929 2928 2928 2928 2928 2928 2927 2927 2927 2927 2928 2928 2929 2929 2930 2930 2930 2930 2932 2934 2936 2937 2938 2939 2940 2942 2943 2943 2945 2946 2947 2948 2948 2949 2950 2951 2951 2950 2950 2950 2949 2950 2951 2952
2947 2946 2945 2944 2942 2941 2940 2939 2939 2938 2937 2936 2936 2935 2934 2934 2933 2933 2932 2931 2931 2930 2929 2928 2927 2927 2927 2926 2926 2926 2925 2925 2925 2925 2925 2925 2925 2925 2925 2925 2925 2925 2925 2925 2925 2925 2925 2925 2925 2925 2925 2925 2925 2925 2925 2925 2925 2926 2927 2928 2930 2931 2932 2933 2934 2935 2936 2937 2938 2939 2940 2941 2941 2942 2942 2943 2944 2944 2944 2944 2944 2944 2944 2945 2946
2949 2948 2946 2945 2944 2943 2943 2942 2941 2940 2939 2939 2938 2937 2937 2936 2935 2934 2934 2934 2933 2931 2930 2929 2929 2928 2928 2927 2927 2926 2926 2925 2924 2924 2924 2924 2923 2923 2923 2923 2923 2922 2922 2922 2922 2923 2922 2922 2922 2922 2922 2922 2922 2922 2922 2922 2922 2923 2924 2925 2926 2927 2928 2929 2930 2930 2931 2932 2932 2933 2933 2934 2935 2935 2936 2936 2937 2937 2937 2937 2937 2937 2938 2938 2939
2950 2949 2948 2947 2946 2945 2944 2943 2942 2942 2942 2942 2941 2940 2939 2938 2937 2937 2936 2935 2934 2933 2932 2932 2931 2930 2929 2929 2928 2927 2926 2926 2925 2925 2925 2925 2924 2923 2923 2922 2922 2922 2922 2921 2921 2922 2922 2921 2921 2921 2920 2920 2920 2920 2919 2919 2919 2920 2920 2921 2922 2922 2923 2924 2924 2925 2925 2926 2926 2927 2927 2928 2929 2930 2930 2930 2931 2931 2930 2930 2931 2931 2931 2932 2933
2951 2950 2950 2949 2948 2947 2946 2945 2944 2944 2944 2943 2942 2942 2941 2940 2940 2939 2938 2937 2936 2935 2935 2934 2933 2932 2931 2931 2930 2928 2927 2927 2926 2926 2926 2926 2925 2924 2923 2923 2922 2922 2921 2921 2921 2922 2922 2922 2921 2921 2920 2919 2919 2918 2918 2917 2917 2917 2917 2917 2918 2918 2919 2919 2920 2920 2920 2921 2921 2922 2922 2923 2924 2924 2925 2925 2925 2925 2925 2925 2925 2925 2926 2927 2928
2952 2951 2950 2950 2949 2948 2947 2946 2946 2945 2944 2944 2943 2943 2942 2942 2941 2940 2940 2939 2938 2937 2936 2936 2935 2934 2933 2932 2931 2930 2929 2929 2928 2927 2927 2926 2925 2925 2924 2924 2923 2923 2922 2922 2922 2922 2922 2922 2921 2921 2920 2919 2918 2918 2917 2916 2916 2915 2915 2915 2915 2915 2915 2916 2916 2917 2917 2917 2917 2917 2918 2918 2918 2919 2919 2919 2919 2920 2920 2920 2920 2920 2921 2921 2922
2953 2952 2951 2950 2949 2948 2948 2947 2946 2946 2945 2944 2944 2943 2943 2942 2942 2941 2940 2940 2939 2938 2937 2936 2935 2934 2934 2933 2932 2931 2931 2930 2929 2928 2927 2927 2926 2926 2925 2925 2924 2924 2923 2923 2922 2922 2922 2922 2921 2921 2920 2919 2918 2917 2916 2916 2915 2915 2914 2914 2914 2914 2914 2914 2914 2914 2914 2914 2914 2914 2914 2914 2915 2915 2915 2915 2915 2916 2916 2916 2916 2916 2916 2916 2917
2954 2953 2952 2951 2950 2949 2948 2948 2947 2946 2945 2944 2944 2943 2943 2942 2942 2941 2940 2940 2939 2938 2938 2937 2936 2935 2934 2933 2932 2931 2931 2930 2929 2929 2928 2927 2927 2926 2926 2925 2925 2924 2924 2923 2923 2922 2922 2921 2921 2920 2919 2919 2918 2917 2916 2916 2915 2915 2914 2914 2914 2913 2913 2913 2913 2912 2912 2912 2912 2912 2912 2912 2912 2912 2912 2912 2913 2913 2913 2913 2913 2913 2913 2913 2914
2954 2954 2953 2952 2951 2950 2949 2948 2947 2946 2946 2945 2944 2943 2943 2942 2941 2941 2940 2939 2939 2938 2937 2937 2936 2935 2934 2933 2932 2931 2930 2929 2929 2928 2928 2927 2927 2926 2926 2925 2924 2924 2923 2922 2922 2921 2921 2920 2919 2919 2918 2918 2917 2917 2916 2916 2915 2915 2914 2914 2913 2913 2912 2912 2911 2911 2911 2910 2910 2910 2910 2910 2910 2910 2910 2911 2911 2911 2911 2911 2911 2911 2912 2912 2913
2955 2954 2953 2952 2951 2950 2949 2949 2948 2947 2946 2945 2944 2944 2943 2942 2941 2940 2939 2939 2938 2937 2937 2936 2935 2935 2934 2933 2932 2931 2930 2929 2928 2927 2927 2927 2926 2926 2925 2924 2923 2923 2922 2921 2920 2920 2919 2919 2918 2917 2917 2917 2916 2916 2915 2915 2914 2914 2913 2913 2912 2912 2911 2910 2910 2909 2909 2908 2908 2908 2908 2908 2908 2909 2909 2909 2909 2909 2909 2909 2910 2910 2911 2911 2912